"read_dt","SO2 (ppb)","flags","PMT voltage (V)","lamp voltage (V)","lamp intensity (Hz)","internal temp (C)","react chamber temp (C)","sample flow (l/min)","pres (mmHg)","SO2 bkg (ppb)","SO2 coefficient"
2013-07-12 00:00:00,2708E-4,5C000000,-0724,0936,11274,030.8,045.4,0.388,735.2,01.18,0.508
2013-07-12 00:01:00,1772E-4,5C000000,-0724,0936,11121,030.8,045.5,0.388,735.3,01.18,0.508
2013-07-12 00:02:00,2206E-4,5C000000,-0724,0936,11141,030.8,045.5,0.388,735.3,01.18,0.508
2013-07-12 00:03:00,2901E-4,5C000000,-0724,0936,11001,030.8,045.4,0.389,735.3,01.18,0.508
2013-07-12 00:04:00,2585E-4,5C000000,-0724,0936,11172,030.8,045.5,0.389,735.2,01.18,0.508
2013-07-12 00:05:00,2233E-4,5C000000,-0724,0936,11103,030.8,045.4,0.388,735.2,01.18,0.508
2013-07-12 00:06:00,2080E-4,5C000000,-0724,0936,11270,030.8,045.5,0.388,735.2,01.18,0.508
2013-07-12 00:07:00,1888E-4,5C000000,-0724,0937,11117,030.8,045.5,0.388,735.3,01.18,0.508
2013-07-12 00:08:00,3085E-4,5C000000,-0724,0937,11162,030.8,045.4,0.388,735.2,01.18,0.508
2013-07-12 00:09:00,1262E-4,5C000000,-0724,0936,11145,030.8,045.4,0.389,735.2,01.18,0.508
2013-07-12 00:10:00,1705E-4,5C000000,-0724,0936,11158,030.9,045.4,0.388,735.2,01.18,0.508
2013-07-12 00:11:00,1374E-4,5C000000,-0724,0936,11211,030.8,045.4,0.388,735.3,01.18,0.508
2013-07-12 00:12:00,2322E-4,5C000000,-0724,0937,11316,030.8,045.4,0.388,735.2,01.18,0.508
2013-07-12 00:13:00,9221E-5,5C000000,-0724,0937,11075,030.9,045.4,0.388,735.2,01.18,0.508
2013-07-12 00:14:00,1876E-4,5C000000,-0724,0936,11032,030.9,045.4,0.388,735.2,01.18,0.508
2013-07-12 00:15:00,1886E-4,5C000000,-0724,0936,11168,030.8,045.4,0.388,735.2,01.18,0.508
2013-07-12 00:16:00,1635E-4,5C000000,-0724,0936,11165,030.9,045.5,0.388,735.2,01.18,0.508
2013-07-12 00:17:00,2004E-4,5C000000,-0724,0937,11201,030.9,045.4,0.388,735.2,01.18,0.508
2013-07-12 00:18:00,2309E-4,5C000000,-0724,0937,11257,030.9,045.4,0.388,735.2,01.18,0.508
2013-07-12 00:19:00,2650E-4,5C000000,-0724,0937,11001,030.9,045.5,0.388,735.2,01.18,0.508
2013-07-12 00:20:00,2135E-4,5C000000,-0724,0936,11120,030.9,045.4,0.388,735.2,01.18,0.508
2013-07-12 00:21:00,2371E-4,5C000000,-0724,0936,11184,030.9,045.5,0.388,735.2,01.18,0.508
2013-07-12 00:22:00,2611E-4,5C000000,-0724,0937,11198,030.9,045.4,0.388,735.1,01.18,0.508
2013-07-12 00:23:00,1412E-4,5C000000,-0724,0936,11165,030.9,045.4,0.388,735.1,01.18,0.508
2013-07-12 00:24:00,2795E-4,5C000000,-0724,0936,11185,030.9,045.5,0.388,735.2,01.18,0.508
2013-07-12 00:25:00,2024E-4,5C000000,-0724,0937,11082,030.9,045.5,0.388,735.1,01.18,0.508
2013-07-12 00:26:00,2065E-4,5C000000,-0724,0937,11177,030.9,045.4,0.388,735.2,01.18,0.508
2013-07-12 00:27:00,1452E-4,5C000000,-0724,0937,11082,030.9,045.5,0.388,735.2,01.18,0.508
2013-07-12 00:28:00,2085E-4,5C000000,-0724,0936,11035,030.9,045.4,0.388,735.2,01.18,0.508
2013-07-12 00:29:00,2176E-4,5C000000,-0724,0937,11112,030.9,045.4,0.388,735.1,01.18,0.508
2013-07-12 00:30:00,1153E-4,5C000000,-0724,0936,11229,030.9,045.4,0.388,735.1,01.18,0.508
2013-07-12 00:31:00,2675E-4,5C000000,-0724,0937,11096,030.9,045.4,0.387,735.2,01.18,0.508
2013-07-12 00:32:00,1759E-4,5C000000,-0724,0937,11076,030.9,045.4,0.388,735.2,01.18,0.508
2013-07-12 00:33:00,2439E-4,5C000000,-0724,0938,11120,031.0,045.4,0.388,735.2,01.18,0.508
2013-07-12 00:34:00,2250E-4,5C000000,-0724,0937,11179,031.0,045.4,0.388,735.2,01.18,0.508
2013-07-12 00:35:00,1717E-4,5C000000,-0724,0937,11069,031.0,045.5,0.388,735.2,01.18,0.508
2013-07-12 00:36:00,1881E-4,5C000000,-0724,0937,10945,031.0,045.5,0.388,735.3,01.18,0.508
2013-07-12 00:37:00,2880E-4,5C000000,-0724,0936,11187,031.0,045.4,0.387,735.2,01.18,0.508
2013-07-12 00:38:00,2181E-4,5C000000,-0724,0937,11046,031.0,045.5,0.388,735.2,01.18,0.508
2013-07-12 00:39:00,1909E-4,5C000000,-0724,0936,11184,031.0,045.5,0.388,735.2,01.18,0.508
2013-07-12 00:40:00,2383E-4,5C000000,-0724,0937,11098,031.0,045.4,0.388,735.1,01.18,0.508
2013-07-12 00:41:00,2049E-4,5C000000,-0724,0937,11170,031.0,045.4,0.388,735.2,01.18,0.508
2013-07-12 00:42:00,2219E-4,5C000000,-0724,0937,11256,031.0,045.4,0.388,735.2,01.18,0.508
2013-07-12 00:43:00,1445E-4,5C000000,-0724,0937,11078,031.0,045.4,0.387,735.1,01.18,0.508
2013-07-12 00:44:00,2336E-4,5C000000,-0724,0936,11183,031.0,045.4,0.388,735.2,01.18,0.508
2013-07-12 00:45:00,2080E-4,5C000000,-0724,0937,11003,031.0,045.5,0.388,735.1,01.18,0.508
2013-07-12 00:46:00,2575E-4,5C000000,-0724,0936,11093,031.0,045.4,0.388,735.1,01.18,0.508
2013-07-12 00:47:00,1820E-4,5C000000,-0724,0937,11194,031.0,045.4,0.388,735.2,01.18,0.508
2013-07-12 00:48:00,2202E-4,5C000000,-0724,0936,11169,031.0,045.4,0.387,735.1,01.18,0.508
2013-07-12 00:49:00,2924E-4,5C000000,-0724,0937,11090,031.0,045.4,0.387,735.1,01.18,0.508
2013-07-12 00:50:00,2064E-4,5C000000,-0724,0937,11091,031.0,045.5,0.388,735.2,01.18,0.508
2013-07-12 00:51:00,2272E-4,5C000000,-0724,0937,11091,031.0,045.4,0.388,735.2,01.18,0.508
2013-07-12 00:52:00,2690E-4,5C000000,-0724,0936,11287,031.0,045.4,0.388,735.1,01.18,0.508
2013-07-12 00:53:00,2878E-4,5C000000,-0724,0937,11167,031.0,045.4,0.388,735.2,01.18,0.508
2013-07-12 00:54:00,2839E-4,5C000000,-0724,0936,11114,031.0,045.4,0.387,735.3,01.18,0.508
2013-07-12 00:55:00,1642E-4,5C000000,-0724,0937,11108,031.0,045.5,0.388,735.2,01.18,0.508
2013-07-12 00:56:00,3609E-4,5C000000,-0724,0936,11222,031.0,045.4,0.388,735.2,01.18,0.508
2013-07-12 00:57:00,2506E-4,5C000000,-0724,0936,11089,031.1,045.4,0.388,735.2,01.18,0.508
2013-07-12 00:58:00,2267E-4,5C000000,-0724,0937,11191,031.1,045.4,0.388,735.2,01.18,0.508
2013-07-12 00:59:00,1509E-4,5C000000,-0724,0937,11173,031.0,045.5,0.387,735.2,01.18,0.508
2013-07-12 01:00:00,2041E-4,5C000000,-0724,0937,11229,031.0,045.5,0.387,735.2,01.18,0.508
2013-07-12 01:01:00,2219E-4,5C000000,-0724,0936,11027,031.1,045.5,0.388,735.1,01.18,0.508
2013-07-12 01:02:00,1404E-4,5C000000,-0724,0936,11208,031.1,045.5,0.388,735.2,01.18,0.508
2013-07-12 01:03:00,2818E-4,5C000000,-0724,0937,11082,031.1,045.5,0.388,735.2,01.18,0.508
2013-07-12 01:04:00,1865E-4,5C000000,-0724,0937,11247,031.1,045.4,0.387,735.1,01.18,0.508
2013-07-12 01:05:00,2515E-4,5C000000,-0724,0937,11019,031.1,045.5,0.387,735.0,01.18,0.508
2013-07-12 01:06:00,1794E-4,5C000000,-0724,0936,11021,031.1,045.4,0.387,735.1,01.18,0.508
2013-07-12 01:07:00,2213E-4,5C000000,-0724,0937,11241,031.1,045.4,0.388,735.2,01.18,0.508
2013-07-12 01:08:00,1527E-4,5C000000,-0724,0937,11195,031.1,045.5,0.388,735.2,01.18,0.508
2013-07-12 01:09:00,1465E-4,5C000000,-0724,0937,11153,031.1,045.5,0.388,735.0,01.18,0.508
2013-07-12 01:10:00,1916E-4,5C000000,-0724,0937,11090,031.1,045.5,0.387,735.2,01.18,0.508
2013-07-12 01:11:00,2349E-4,5C000000,-0724,0937,11171,031.1,045.4,0.387,735.2,01.18,0.508
2013-07-12 01:12:00,3002E-4,5C000000,-0724,0937,11071,031.1,045.5,0.387,735.2,01.18,0.508
2013-07-12 01:13:00,2911E-4,5C000000,-0724,0937,11185,031.1,045.5,0.388,735.2,01.18,0.508
2013-07-12 01:14:00,2272E-4,5C000000,-0724,0937,11022,031.1,045.4,0.388,735.2,01.18,0.508
2013-07-12 01:15:00,2040E-4,5C000000,-0724,0937,11246,031.1,045.4,0.387,735.1,01.18,0.508
2013-07-12 01:16:00,3207E-4,5C000000,-0724,0938,11186,031.2,045.4,0.387,735.1,01.18,0.508
2013-07-12 01:17:00,2423E-4,5C000000,-0724,0937,11194,031.1,045.4,0.387,735.2,01.18,0.508
2013-07-12 01:18:00,2082E-4,5C000000,-0724,0936,11133,031.2,045.4,0.388,735.1,01.18,0.508
2013-07-12 01:19:00,2159E-4,5C000000,-0724,0937,11078,031.2,045.5,0.388,735.1,01.18,0.508
2013-07-12 01:20:00,1717E-4,5C000000,-0724,0938,11214,031.2,045.5,0.387,735.1,01.18,0.508
2013-07-12 01:21:00,2626E-4,5C000000,-0724,0938,11179,031.2,045.4,0.387,735.1,01.18,0.508
2013-07-12 01:22:00,2797E-4,5C000000,-0724,0936,11222,031.2,045.5,0.387,735.1,01.18,0.508
2013-07-12 01:23:00,2993E-4,5C000000,-0724,0937,11180,031.2,045.5,0.388,735.1,01.18,0.508
2013-07-12 01:24:00,1898E-4,5C000000,-0724,0938,11214,031.2,045.5,0.388,735.1,01.18,0.508
2013-07-12 01:25:00,2138E-4,5C000000,-0724,0937,11162,031.2,045.5,0.387,735.1,01.18,0.508
2013-07-12 01:26:00,1514E-4,5C000000,-0724,0937,11137,031.2,045.4,0.387,735.1,01.18,0.508
2013-07-12 01:27:00,1275E-4,5C000000,-0724,0938,11078,031.2,045.5,0.387,735.1,01.18,0.508
2013-07-12 01:28:00,2557E-4,5C000000,-0724,0935,11124,031.2,045.4,0.388,735.1,01.18,0.508
2013-07-12 01:29:00,1708E-4,5C000000,-0724,0937,11169,031.2,045.5,0.388,735.1,01.18,0.508
2013-07-12 01:30:00,1912E-4,5C000000,-0724,0937,11038,031.2,045.4,0.387,735.2,01.18,0.508
2013-07-12 01:31:00,2038E-4,5C000000,-0724,0938,11182,031.2,045.5,0.387,735.2,01.18,0.508
2013-07-12 01:32:00,1346E-4,5C000000,-0724,0937,11060,031.2,045.5,0.387,735.2,01.18,0.508
2013-07-12 01:33:00,2995E-4,5C000000,-0724,0937,11170,031.3,045.4,0.388,735.1,01.18,0.508
2013-07-12 01:34:00,2201E-4,5C000000,-0724,0938,11127,031.2,045.5,0.388,735.1,01.18,0.508
2013-07-12 01:35:00,2650E-4,5C000000,-0724,0937,11020,031.3,045.5,0.387,735.2,01.18,0.508
2013-07-12 01:36:00,1197E-4,5C000000,-0724,0937,11067,031.3,045.5,0.387,735.2,01.18,0.508
2013-07-12 01:37:00,2474E-4,5C000000,-0724,0936,11106,031.3,045.5,0.387,735.1,01.18,0.508
2013-07-12 01:38:00,2102E-4,5C000000,-0724,0937,11120,031.3,045.5,0.388,735.2,01.18,0.508
2013-07-12 01:39:00,2337E-4,5C000000,-0724,0937,11188,031.3,045.5,0.388,735.2,01.18,0.508
2013-07-12 01:40:00,2036E-4,5C000000,-0724,0938,11061,031.3,045.5,0.387,735.2,01.18,0.508
2013-07-12 01:41:00,1961E-4,5C000000,-0724,0937,11000,031.3,045.5,0.387,735.2,01.18,0.508
2013-07-12 01:42:00,2429E-4,5C000000,-0724,0937,11248,031.3,045.4,0.387,735.2,01.18,0.508
2013-07-12 01:43:00,2074E-4,5C000000,-0724,0937,11157,031.3,045.4,0.387,735.2,01.18,0.508
2013-07-12 01:44:00,2784E-4,5C000000,-0724,0937,11120,031.3,045.5,0.388,735.2,01.18,0.508
2013-07-12 01:45:00,2720E-4,5C000000,-0724,0938,11037,031.4,045.5,0.387,735.2,01.18,0.508
2013-07-12 01:46:00,1987E-4,5C000000,-0724,0938,11104,031.4,045.5,0.387,735.2,01.18,0.508
2013-07-12 01:47:00,3037E-4,5C000000,-0724,0939,11144,031.4,045.4,0.387,735.1,01.18,0.508
2013-07-12 01:48:00,2248E-4,5C000000,-0724,0937,11075,031.4,045.5,0.387,735.2,01.18,0.508
2013-07-12 01:49:00,2033E-4,5C000000,-0724,0938,11149,031.4,045.5,0.387,735.2,01.18,0.508
2013-07-12 01:50:00,1413E-4,5C000000,-0724,0936,11131,031.4,045.5,0.387,735.1,01.18,0.508
2013-07-12 01:51:00,2417E-4,5C000000,-0724,0939,11120,031.4,045.5,0.387,735.1,01.18,0.508
2013-07-12 01:52:00,2694E-4,5C000000,-0724,0938,11224,031.4,045.5,0.387,735.2,01.18,0.508
2013-07-12 01:53:00,3152E-4,5C000000,-0724,0938,11016,031.4,045.5,0.387,735.1,01.18,0.508
2013-07-12 01:54:00,2515E-4,5C000000,-0724,0937,11112,031.4,045.5,0.387,735.2,01.18,0.508
2013-07-12 01:55:00,2435E-4,5C000000,-0724,0938,11090,031.4,045.5,0.387,735.2,01.18,0.508
2013-07-12 01:56:00,1881E-4,5C000000,-0724,0938,11020,031.4,045.5,0.387,735.2,01.18,0.508
2013-07-12 01:57:00,1282E-4,5C000000,-0724,0937,10977,031.4,045.5,0.387,735.2,01.18,0.508
2013-07-12 01:58:00,2488E-4,5C000000,-0724,0938,11213,031.5,045.5,0.387,735.3,01.18,0.508
2013-07-12 01:59:00,2040E-4,5C000000,-0724,0937,11038,031.5,045.5,0.387,735.2,01.18,0.508
2013-07-12 02:00:00,2090E-4,5C000000,-0724,0937,11116,031.5,045.5,0.387,735.2,01.18,0.508
2013-07-12 02:01:00,1881E-4,5C000000,-0724,0938,11209,031.5,045.5,0.387,735.3,01.18,0.508
2013-07-12 02:02:00,2039E-4,5C000000,-0724,0937,11196,031.5,045.5,0.387,735.3,01.18,0.508
2013-07-12 02:03:00,1556E-4,5C000000,-0724,0937,11211,031.5,045.5,0.387,735.3,01.18,0.508
2013-07-12 02:04:00,2245E-4,5C000000,-0724,0937,11136,031.5,045.5,0.387,735.3,01.18,0.508
2013-07-12 02:05:00,2723E-4,5C000000,-0724,0938,11175,031.5,045.5,0.387,735.3,01.18,0.508
2013-07-12 02:06:00,2382E-4,5C000000,-0724,0937,11110,031.5,045.5,0.386,735.3,01.18,0.508
2013-07-12 02:07:00,2363E-4,5C000000,-0724,0938,11239,031.5,045.5,0.387,735.3,01.18,0.508
2013-07-12 02:08:00,1124E-4,5C000000,-0724,0938,11121,031.5,045.5,0.387,735.3,01.18,0.508
2013-07-12 02:09:00,2659E-4,5C000000,-0724,0938,11137,031.5,045.5,0.387,735.3,01.18,0.508
2013-07-12 02:10:00,1884E-4,5C000000,-0724,0939,11144,031.5,045.5,0.386,735.3,01.18,0.508
2013-07-12 02:11:00,2061E-4,5C000000,-0724,0938,11130,031.5,045.5,0.387,735.3,01.18,0.508
2013-07-12 02:12:00,1713E-4,5C000000,-0724,0938,11069,031.6,045.5,0.387,735.3,01.18,0.508
2013-07-12 02:13:00,2773E-4,5C000000,-0724,0938,11182,031.6,045.5,0.387,735.3,01.18,0.508
2013-07-12 02:14:00,2063E-4,5C000000,-0724,0938,11149,031.6,045.5,0.386,735.3,01.18,0.508
2013-07-12 02:15:00,2276E-4,5C000000,-0724,0938,11022,031.6,045.5,0.387,735.3,01.18,0.508
2013-07-12 02:16:00,2171E-4,5C000000,-0724,0938,11254,031.6,045.5,0.387,735.3,01.18,0.508
2013-07-12 02:17:00,2421E-4,5C000000,-0724,0938,10973,031.6,045.5,0.387,735.3,01.18,0.508
2013-07-12 02:18:00,2583E-4,5C000000,-0724,0938,11127,031.6,045.5,0.386,735.3,01.18,0.508
2013-07-12 02:19:00,2653E-4,5C000000,-0724,0938,11258,031.6,045.5,0.387,735.3,01.18,0.508
2013-07-12 02:20:00,2102E-4,5C000000,-0724,0938,11158,031.6,045.5,0.387,735.3,01.18,0.508
2013-07-12 02:21:00,2900E-4,5C000000,-0724,0938,11130,031.6,045.4,0.387,735.3,01.18,0.508
2013-07-12 02:22:00,1961E-4,5C000000,-0724,0937,11158,031.6,045.5,0.386,735.3,01.18,0.508
2013-07-12 02:23:00,2336E-4,5C000000,-0724,0938,11078,031.7,045.5,0.386,735.3,01.18,0.508
2013-07-12 02:24:00,2425E-4,5C000000,-0724,0938,11163,031.6,045.5,0.387,735.3,01.18,0.508
2013-07-12 02:25:00,3155E-4,5C000000,-0724,0938,11151,031.7,045.5,0.387,735.2,01.18,0.508
2013-07-12 02:26:00,1981E-4,5C000000,-0724,0938,11149,031.7,045.5,0.386,735.2,01.18,0.508
2013-07-12 02:27:00,2436E-4,5C000000,-0724,0937,11212,031.7,045.5,0.386,735.3,01.18,0.508
2013-07-12 02:28:00,2445E-4,5C000000,-0724,0938,11052,031.7,045.5,0.387,735.2,01.18,0.508
2013-07-12 02:29:00,2637E-4,5C000000,-0724,0937,11217,031.7,045.5,0.387,735.3,01.18,0.508
2013-07-12 02:30:00,3316E-4,5C000000,-0724,0939,11110,031.7,045.5,0.386,735.2,01.18,0.508
2013-07-12 02:31:00,3733E-4,5C000000,-0724,0938,11167,031.7,045.5,0.386,735.2,01.18,0.508
2013-07-12 02:32:00,2227E-4,5C000000,-0724,0939,11129,031.7,045.5,0.387,735.2,01.18,0.508
2013-07-12 02:33:00,2275E-4,5C000000,-0724,0939,11014,031.7,045.5,0.387,735.2,01.18,0.508
2013-07-12 02:34:00,2247E-4,5C000000,-0724,0938,11257,031.7,045.5,0.386,735.2,01.18,0.508
2013-07-12 02:35:00,1906E-4,5C000000,-0724,0937,11169,031.7,045.5,0.386,735.3,01.18,0.508
2013-07-12 02:36:00,2799E-4,5C000000,-0724,0938,11226,031.8,045.5,0.387,735.2,01.18,0.508
2013-07-12 02:37:00,1848E-4,5C000000,-0724,0938,11022,031.8,045.5,0.387,735.3,01.18,0.508
2013-07-12 02:38:00,2291E-4,5C000000,-0724,0939,11159,031.8,045.5,0.386,735.3,01.18,0.508
2013-07-12 02:39:00,2168E-4,5C000000,-0724,0938,11216,031.8,045.5,0.386,735.1,01.18,0.508
2013-07-12 02:40:00,1676E-4,5C000000,-0724,0939,11116,031.8,045.5,0.387,735.2,01.18,0.508
2013-07-12 02:41:00,2677E-4,5C000000,-0724,0939,11163,031.8,045.5,0.387,735.2,01.18,0.508
2013-07-12 02:42:00,1908E-4,5C000000,-0724,0938,11126,031.8,045.5,0.386,735.2,01.18,0.508
2013-07-12 02:43:00,2678E-4,5C000000,-0724,0938,11267,031.8,045.5,0.386,735.2,01.18,0.508
2013-07-12 02:44:00,2130E-4,5C000000,-0724,0938,11153,031.8,045.5,0.387,735.3,01.18,0.508
2013-07-12 02:45:00,1770E-4,5C000000,-0724,0938,11116,031.8,045.5,0.386,735.3,01.18,0.508
2013-07-12 02:46:00,2238E-4,5C000000,-0724,0938,11020,031.8,045.5,0.386,735.3,01.18,0.508
2013-07-12 02:47:00,1786E-4,5C000000,-0724,0938,10887,031.8,045.5,0.386,735.2,01.18,0.508
2013-07-12 02:48:00,2655E-4,5C000000,-0724,0938,10996,031.8,045.5,0.387,735.3,01.18,0.508
2013-07-12 02:49:00,2278E-4,5C000000,-0724,0939,11171,031.8,045.5,0.386,735.2,01.18,0.508
2013-07-12 02:50:00,1967E-4,5C000000,-0724,0939,11172,031.9,045.5,0.386,735.3,01.18,0.508
2013-07-12 02:51:00,1951E-4,5C000000,-0724,0938,11023,031.9,045.5,0.386,735.2,01.18,0.508
2013-07-12 02:52:00,2486E-4,5C000000,-0724,0938,11085,031.9,045.5,0.387,735.2,01.18,0.508
2013-07-12 02:53:00,1834E-4,5C000000,-0724,0939,11096,031.9,045.5,0.386,735.2,01.18,0.508
2013-07-12 02:54:00,2650E-4,5C000000,-0724,0940,11154,031.9,045.5,0.386,735.2,01.18,0.508
2013-07-12 02:55:00,1820E-4,5C000000,-0724,0939,11113,031.9,045.5,0.386,735.2,01.18,0.508
2013-07-12 02:56:00,2561E-4,5C000000,-0724,0938,11093,031.9,045.5,0.387,735.2,01.18,0.508
2013-07-12 02:57:00,2338E-4,5C000000,-0724,0938,11227,031.9,045.5,0.386,735.2,01.18,0.508
2013-07-12 02:58:00,1949E-4,5C000000,-0724,0939,11023,031.9,045.5,0.386,735.3,01.18,0.508
2013-07-12 02:59:00,2127E-4,5C000000,-0724,0938,11262,031.9,045.5,0.386,735.2,01.18,0.508
2013-07-12 03:00:00,2466E-4,5C000000,-0724,0938,11139,031.9,045.5,0.386,735.2,01.18,0.508
2013-07-12 03:01:00,2188E-4,5C000000,-0724,0938,11130,032.0,045.5,0.386,735.2,01.18,0.508
2013-07-12 03:02:00,1156E-4,5C000000,-0724,0938,11138,032.0,045.5,0.386,735.2,01.18,0.508
2013-07-12 03:03:00,1935E-4,5C000000,-0724,0938,11163,032.0,045.5,0.386,735.2,01.18,0.508
2013-07-12 03:04:00,2647E-4,5C000000,-0724,0939,11143,032.0,045.5,0.386,735.3,01.18,0.508
2013-07-12 03:05:00,2472E-4,5C000000,-0724,0939,11078,032.0,045.5,0.386,735.2,01.18,0.508
2013-07-12 03:06:00,2104E-4,5C000000,-0724,0938,11139,032.0,045.5,0.386,735.3,01.18,0.508
2013-07-12 03:07:00,1759E-4,5C000000,-0724,0939,11159,032.0,045.5,0.386,735.3,01.18,0.508
2013-07-12 03:08:00,2505E-4,5C000000,-0724,0939,11044,032.0,045.5,0.386,735.1,01.18,0.508
2013-07-12 03:09:00,2795E-4,5C000000,-0724,0938,11246,032.0,045.5,0.386,735.1,01.18,0.508
2013-07-12 03:10:00,2267E-4,5C000000,-0724,0939,11226,032.0,045.5,0.386,735.2,01.18,0.508
2013-07-12 03:11:00,1434E-4,5C000000,-0724,0937,11081,032.0,045.5,0.386,735.3,01.18,0.508
2013-07-12 03:12:00,1949E-4,5C000000,-0724,0939,11199,032.0,045.5,0.386,735.3,01.18,0.508
2013-07-12 03:13:00,2020E-4,5C000000,-0724,0938,11159,032.0,045.5,0.386,735.3,01.18,0.508
2013-07-12 03:14:00,1918E-4,5C000000,-0724,0939,11123,032.0,045.5,0.386,735.3,01.18,0.508
2013-07-12 03:15:00,1488E-4,5C000000,-0724,0938,11078,032.0,045.5,0.386,735.3,01.18,0.508
2013-07-12 03:16:00,2549E-4,5C000000,-0724,0939,11038,032.0,045.5,0.386,735.3,01.18,0.508
2013-07-12 03:17:00,1813E-4,5C000000,-0724,0938,11144,032.1,045.5,0.386,735.2,01.18,0.508
2013-07-12 03:18:00,2056E-4,5C000000,-0724,0939,11096,032.1,045.5,0.386,735.2,01.18,0.508
2013-07-12 03:19:00,2233E-4,5C000000,-0724,0939,11090,032.1,045.5,0.386,735.3,01.18,0.508
2013-07-12 03:20:00,1897E-4,5C000000,-0724,0939,10996,032.1,045.5,0.386,735.3,01.18,0.508
2013-07-12 03:21:00,2870E-4,5C000000,-0724,0938,11135,032.1,045.5,0.386,735.3,01.18,0.508
2013-07-12 03:22:00,2587E-4,5C000000,-0724,0938,11202,032.1,045.5,0.386,735.3,01.18,0.508
2013-07-12 03:23:00,2627E-4,5C000000,-0724,0939,11026,032.1,045.5,0.386,735.2,01.18,0.508
2013-07-12 03:24:00,1896E-4,5C000000,-0724,0939,11130,032.1,045.5,0.386,735.3,01.18,0.508
2013-07-12 03:25:00,2316E-4,5C000000,-0724,0939,11014,032.1,045.5,0.385,735.3,01.18,0.508
2013-07-12 03:26:00,2829E-4,5C000000,-0724,0939,11145,032.1,045.5,0.386,735.3,01.18,0.508
2013-07-12 03:27:00,2799E-4,5C000000,-0724,0939,11091,032.2,045.5,0.386,735.2,01.18,0.508
2013-07-12 03:28:00,2431E-4,5C000000,-0724,0938,11199,032.1,045.5,0.385,735.2,01.18,0.508
2013-07-12 03:29:00,2370E-4,5C000000,-0724,0938,11086,032.2,045.5,0.385,735.2,01.18,0.508
2013-07-12 03:30:00,2040E-4,5C000000,-0724,0939,11170,032.2,045.5,0.386,735.2,01.18,0.508
2013-07-12 03:31:00,2718E-4,5C000000,-0724,0939,11037,032.2,045.5,0.386,735.2,01.18,0.508
2013-07-12 03:32:00,2522E-4,5C000000,-0724,0939,11195,032.2,045.5,0.385,735.2,01.18,0.508
2013-07-12 03:33:00,3133E-4,5C000000,-0724,0939,11153,032.2,045.5,0.386,735.1,01.18,0.508
2013-07-12 03:34:00,2148E-4,5C000000,-0724,0940,11109,032.2,045.5,0.386,735.2,01.18,0.508
2013-07-12 03:35:00,3026E-4,5C000000,-0724,0940,11285,032.2,045.5,0.385,735.2,01.18,0.508
2013-07-12 03:36:00,2575E-4,5C000000,-0724,0939,11049,032.2,045.5,0.385,735.2,01.18,0.508
2013-07-12 03:37:00,2469E-4,5C000000,-0724,0939,11208,032.2,045.5,0.386,735.1,01.18,0.508
2013-07-12 03:38:00,2105E-4,5C000000,-0724,0939,11006,032.2,045.5,0.385,735.2,01.18,0.508
2013-07-12 03:39:00,3539E-4,5C000000,-0724,0940,11181,032.2,045.5,0.385,735.2,01.18,0.508
2013-07-12 03:40:00,1965E-4,5C000000,-0724,0939,11036,032.2,045.5,0.386,735.2,01.18,0.508
2013-07-12 03:41:00,2738E-4,5C000000,-0724,0939,11182,032.2,045.5,0.386,735.1,01.18,0.508
2013-07-12 03:42:00,1591E-4,5C000000,-0724,0939,11057,032.2,045.5,0.385,735.1,01.18,0.508
2013-07-12 03:43:00,1616E-4,5C000000,-0724,0939,11116,032.2,045.5,0.385,735.1,01.18,0.508
2013-07-12 03:44:00,1542E-4,5C000000,-0724,0940,11213,032.3,045.5,0.386,735.1,01.18,0.508
2013-07-12 03:45:00,1290E-4,5C000000,-0724,0940,11106,032.3,045.5,0.385,735.1,01.18,0.508
2013-07-12 03:46:00,2267E-4,5C000000,-0724,0939,11318,032.3,045.5,0.385,735.2,01.18,0.508
2013-07-12 03:47:00,2912E-4,5C000000,-0724,0940,11232,032.3,045.5,0.386,735.2,01.18,0.508
2013-07-12 03:48:00,1920E-4,5C000000,-0724,0939,11071,032.3,045.5,0.385,735.1,01.18,0.508
2013-07-12 03:49:00,1771E-4,5C000000,-0724,0940,11125,032.3,045.5,0.385,735.1,01.18,0.508
2013-07-12 03:50:00,2181E-4,5C000000,-0724,0939,11064,032.3,045.5,0.386,735.1,01.18,0.508
2013-07-12 03:51:00,2699E-4,5C000000,-0724,0940,11167,032.3,045.5,0.386,735.2,01.18,0.508
2013-07-12 03:52:00,1487E-4,5C000000,-0724,0939,11098,032.3,045.5,0.385,735.2,01.18,0.508
2013-07-12 03:53:00,1400E-4,5C000000,-0724,0940,11173,032.3,045.5,0.385,735.2,01.18,0.508
2013-07-12 03:54:00,2327E-4,5C000000,-0724,0939,11005,032.3,045.5,0.386,735.2,01.18,0.508
2013-07-12 03:55:00,2068E-4,5C000000,-0724,0940,11177,032.3,045.5,0.385,735.2,01.18,0.508
2013-07-12 03:56:00,2076E-4,5C000000,-0724,0939,11026,032.4,045.5,0.385,735.2,01.18,0.508
2013-07-12 03:57:00,1812E-4,5C000000,-0724,0940,11190,032.3,045.5,0.386,735.2,01.18,0.508
2013-07-12 03:58:00,2520E-4,5C000000,-0724,0940,11144,032.4,045.5,0.385,735.2,01.18,0.508
2013-07-12 03:59:00,2637E-4,5C000000,-0724,0940,11181,032.4,045.5,0.385,735.2,01.18,0.508
2013-07-12 04:00:00,2819E-4,5C000000,-0724,0939,10924,032.4,045.5,0.386,735.2,01.18,0.508
2013-07-12 04:01:00,2315E-4,5C000000,-0724,0939,11021,032.4,045.5,0.385,735.2,01.18,0.508
2013-07-12 04:02:00,1713E-4,5C000000,-0724,0940,11097,032.4,045.5,0.385,735.1,01.18,0.508
2013-07-12 04:03:00,2673E-4,5C000000,-0724,0940,11119,032.4,045.5,0.385,735.1,01.18,0.508
2013-07-12 04:04:00,2229E-4,5C000000,-0724,0939,10926,032.4,045.5,0.386,735.1,01.18,0.508
2013-07-12 04:05:00,1872E-4,5C000000,-0724,0939,11110,032.4,045.5,0.385,735.2,01.18,0.508
2013-07-12 04:06:00,1775E-4,5C000000,-0724,0940,11164,032.4,045.5,0.385,735.1,01.18,0.508
2013-07-12 04:07:00,2964E-4,5C000000,-0724,0939,11142,032.5,045.5,0.385,735.0,01.18,0.508
2013-07-12 04:08:00,2522E-4,5C000000,-0724,0940,11010,032.5,045.5,0.385,735.1,01.18,0.508
2013-07-12 04:09:00,2205E-4,5C000000,-0724,0939,11137,032.5,045.5,0.385,735.1,01.18,0.508
2013-07-12 04:10:00,1697E-4,5C000000,-0724,0940,10969,032.5,045.5,0.386,735.2,01.18,0.508
2013-07-12 04:11:00,1606E-4,5C000000,-0724,0940,11115,032.5,045.5,0.385,735.2,01.18,0.508
2013-07-12 04:12:00,2165E-4,5C000000,-0724,0940,11120,032.5,045.5,0.385,735.1,01.18,0.508
2013-07-12 04:13:00,1775E-4,5C000000,-0724,0940,11130,032.5,045.5,0.385,735.2,01.18,0.508
2013-07-12 04:14:00,3588E-4,5C000000,-0724,0940,11129,032.5,045.5,0.385,735.2,01.18,0.508
2013-07-12 04:15:00,2198E-4,5C000000,-0724,0940,11136,032.5,045.5,0.385,735.2,01.18,0.508
2013-07-12 04:16:00,2916E-4,5C000000,-0724,0939,10943,032.5,045.5,0.385,735.2,01.18,0.508
2013-07-12 04:17:00,2572E-4,5C000000,-0724,0940,11169,032.5,045.5,0.385,735.2,01.18,0.508
2013-07-12 04:18:00,2229E-4,5C000000,-0724,0940,10999,032.6,045.5,0.385,735.2,01.18,0.508
2013-07-12 04:19:00,2590E-4,5C000000,-0724,0939,11138,032.5,045.5,0.385,735.2,01.18,0.508
2013-07-12 04:20:00,2460E-4,5C000000,-0724,0939,11147,032.5,045.5,0.385,735.2,01.18,0.508